Kallaste

Estonia     58˚39′44″N   27˚09′18″E
temp.,
°C
wind,
m/s
gust,
m/s
humid.,
%
clouds,
%
prec.,
mm/h
press.,
hPa
HPBL,
m
29 november, sun
sun2923:00+2˚e7778100 0.1 1028877
02:00+1˚e7783100 0.1 1029528
05:00e668693 0.0 1028517
08:00e668897 0.0 1028462
11:00e6686100 0.0 1028509
14:00ene7881100 0.0 1027633
17:00ene998377 0.0 1025664
20:00ene789287 0.3 1025509
30 november, mon
mon3023:00ene7894100 0.7 1023420
02:00+2˚ene6797100 2.1 1022301
05:00+3˚se6797100 1.3 1020378
08:00+2˚s7888100 1.4 1021490
11:00+1˚sse779075 0.0 1020516
14:00+1˚s668488 0.1 1020646
17:00ssw6790100 0.2 1019550
20:00+1˚ssw678592 0.3 1019624
1 december, tue
tue123:00ssw798396 0.1 1019603
02:00ssw898097 0.1 1019456
05:00ssw8108789 0.0 1019515
08:00+1˚ssw8108393 0.0 1021758
11:00+2˚s9118596 0.0 1022515
14:00+2˚ssw8108798 0.0 1023552
17:00+2˚ssw81187100 0.0 1024566
20:00+1˚ssw81088100 0.0 1026535
2 december, wed
wed223:00+1˚sw71093100 0.1 1027530
02:00+1˚ssw81090100 0.2 1028445
05:00+1˚sw798798 0.1 1029432
08:00sw568696 0.1 1029495
11:00sw6684100 0.0 1030514
14:00ssw5581100 0.0 1030540
17:00s558282 0.0 1030609
20:00s567790 0.0 1030613
3 december, thu
thu323:00s677694 0.0 1030601
02:00s787897 0.0 1029619
05:00sse7878100 0.0 1027552
08:00sse7886100 0.0 1026544
11:00sse788998 0.0 1026578
14:00sse778499 0.1 1025739
17:00−1˚sse8884100 0.1 1025745
20:00−1˚s7879100 0.1 1024857